Regional Weather Roundup
Issued by NWS

Home | Current Version | Previous Version | Text Only | Print | Product List | Glossary Off
Versions: 1 2 3 4 5 6 7 8 9 10 11 12 13 14 15 16 17 18 19 20 21 22 23 24 25 26 27 28 29 30 31 32 33 34 35 36 37 38 39 40 41 42 43 44 45 46 47 48 49 50

000
ASUS45 KBOU 040310
RWRCO

WEATHER ROUNDUP FOR COLORADO
NATIONAL WEATHER SERVICE DENVER/BOULDER CO
900 PM MDT FRI JUL 03 2015

NOTE: "FAIR" INDICATES FEW OR NO CLOUDS BELOW 12000 FEET WITH NO
SIGNIFICANT WEATHER AND/OR OBSTRUCTIONS TO VISIBILITY.

COZ001>005-013-030-031-040400-
...NORTHWEST COLORADO...

CITY           SKY/WX    TMP DP  RH WIND       PRES   REMARKS
CRAIG          PTCLDY    76  39  26 SE8       30.05R
HAYDEN         MOCLDY    75  36  23 SE9       30.08R
MEEKER         MOCLDY    75  52  44 E3        30.07R
MOUNT WERNER   NOT AVBL
STEAMBOAT SPGS PTCLDY    69  45  42 SE5       30.12R
WALDEN         PTCLDY    66  43  42 NE7       30.23S
$$

COZ006>008-011-040400-
...WEST CENTRAL VALLEYS...

CITY           SKY/WX    TMP DP  RH WIND       PRES   REMARKS
GRAND JUNCTION PTCLDY    83  51  33 SE21G28   29.94R
MONTROSE       MOCLDY    76  49  38 E8        30.08S
EAGLE          PTCLDY    79  46  31 W8        30.11R
RIFLE          PTCLDY    83  49  30 SE13      29.99R
DELTA          MOCLDY    80  48  33 NE7       30.04R
NUCLA          MOCLDY    72  52  49 E10       30.13R
$$

COZ017>023-064>068-040400-
...SOUTHWEST COLORADO...

CITY           SKY/WX    TMP DP  RH WIND       PRES   REMARKS
DURANGO        CLOUDY    68  47  46 W7        30.21F
CORTEZ         CLEAR     73  49  42 CALM      30.13R
PAGOSA SPRINGS CLOUDY    64  50  58 NW3       30.28S
TELLURIDE      CLOUDY    57  51  79 SE8       30.40S
WOLF CREEK PAS NOT AVBL
$$

COZ009-010-012-014-032>034-037-058>063-040400-
...CENTRAL COLORADO...

CITY           SKY/WX    TMP DP  RH WIND       PRES   REMARKS
ASPEN          PTCLDY    65  49  56 S7        30.22R
BUENA VISTA    PTCLDY    64  47  54 E5        30.30S
COPPER MTN     PTCLDY    59  37  44 W8        30.59R
BERTHOUD PASS  FAIR      45  34  65 E24G30    30.63S
COTTONWOOD PAS NOT AVBL
GUNNISON       MOCLDY    64  45  48 W6        30.27S
KREMMLING      PTCLDY    70  34  26 E10       30.19R
LEADVILLE      PTCLDY    59  44  57 S9        30.41R
MONARCH PASS   MOCLDY    48  45  87 SE3       30.69S
SALIDA         MOCLDY    68  50  52 SE10G18   30.33R
SUNLIGHT       PTCLDY    61  41  48 CALM      30.50S
WILKERSON PASS MOCLDY    48  41  76 SW3       30.57F
$$

COZ069>075-040400-
...SAN LUIS VALLEY/SANGRE DE CRISTO MOUNTAINS...

CITY           SKY/WX    TMP DP  RH WIND       PRES   REMARKS
ALAMOSA        CLOUDY    60  49  66 E3        30.28R
LA VETA PASS   CLOUDY    48  41  76 SE8       30.47S
SAGUACHE       CLOUDY    63  48  59 SE6       30.29S
$$

COZ035-036-038>040-040400-
...NORTHERN COLORADO FRONT RANGE...

CITY           SKY/WX    TMP DP  RH WIND       PRES   REMARKS
DENVER INTL AP MOCLDY    70  56  61 SE7       30.08S
DMNS CITY PARK   N/A     76  54  45 E15       30.07S
AURORA         PTCLDY    72  53  52 S12       30.11S
FRONT RANGE AP MOCLDY    75  63  64 SE7       30.11R
ERIE MUNI ARPT PTCLDY    75  57  53 N7        30.06S
BOULDER MUN AP PTCLDY    75  57  53 N5        30.08R
CENTENNIAL     PTCLDY    71  53  52 S12       30.12S
BROOMFIELD     PTCLDY    77  55  47 MISG      30.11R
FORT COLLINS   PTCLDY    73  57  56 SE6       30.07R
LONGMONT       PTCLDY    79  56  44 NE8       30.09R
$$

COZ041-046-047-076>085-087-088-040400-
...PIKES PEAK/PALMER DIVIDE AND SOUTHERN FOOTHILLS...

CITY           SKY/WX    TMP DP  RH WIND       PRES   REMARKS
COLO. SPRINGS  MOCLDY    63  59  87 NW6       30.20F
A. F. ACADEMY  MOCLDY    62  57  83 SE3       30.20F
ELLICOTT       MOCLDY   N/A N/A N/A SW17      30.17R THUNDER
FALCON         MOCLDY    60  56  87 W10       30.24R
FORT CARSON    PTCLDY    62  55  78 SW3       30.17R
LIMON          MOCLDY    68  59  73 SE6       30.11S
MONUMENT HILL  NOT AVBL
TRINIDAD       LGT RAIN  64  55  72 W18G32    30.13R
$$

COZ042>045-048>051-090-091-040400-
...NORTHEAST COLORADO...

CITY           SKY/WX    TMP DP  RH WIND       PRES   REMARKS
GREELEY ARPT   MOCLDY    73  57  56 SE8       30.06R
AKRON          MOCLDY    71  61  70 SE12      30.06S
BURLINGTON     CLOUDY    75  58  55 SE12      30.06R
WRAY           MOCLDY    78  57  49 E14       30.03R
STERLING       MOCLDY    75  55  50 E5          N/A
HOLYOKE        CLEAR     73  59  60 E7        30.03R
FORT MORGAN    MOCLDY    70  56  59 E8        30.05F
$$

COZ086-089-092>099-040400-
...SOUTHEAST COLORADO...

CITY           SKY/WX    TMP DP  RH WIND       PRES   REMARKS
PUEBLO         LGT RAIN  72  55  55 N18G28    30.08R
LA JUNTA       CLOUDY    83  54  36 S14       30.01R
LAMAR          PTCLDY    78  61  55 SE14      29.98S
SPRINGFIELD      N/A     69  60  73 SE14      30.07R
$$



USA.gov is the U.S. government's official web portal to all federal, state and local government web resources and services.